Location: Berkeley
(37.8716°N, 122.2727°W)
Time: 02:46:26
(UTC-07:00)

Envisat - Pass Details

Date: 21 February 2019
Orbit: 764 x 766 km, 98.2° (Epoch: 19 March)

Event Time Altitude Azimuth Distance (km) Brightness Sun altitude
Rises 20:13:19 0° 213° (SSW) 3,219 6.5 -28.1°
Reaches altitude 10° 20:16:50 10° 239° (WSW) 2,298 6.0 -28.8°
Maximum altitude 20:19:20 14° 269° (W) 2,057 6.0 -29.2°
Drops below altitude 10° 20:21:50 10° 299° (WNW) 2,306 6.3 -29.7°
Sets 20:25:23 0° 325° (NW) 3,238 6.9 -30.4°
